Location: San Pelegr�n
(42.1868°N, 0.0079°E)
Time: 03:26:56
(UTC+00:00)

Cosmos 1603 - Pass Details

Date: 24 January 2020
Orbit: 831 x 859 km, 71.0° (Epoch: 18 February)

Event Time Altitude Azimuth Distance (km) Brightness Sun altitude
Rises 19:18:22 0° 339° (NNW) 3,419 7.1 -24.9°
Reaches altitude 10° 19:20:53 10° 343° (NNW) 2,475 6.3 -25.3°
Enters shadow 19:25:13 47° 15° (NNE) 1,109 4.1 -26.1°
